Temperature
16 15 15 15 15 15 15 15 15 15 15 15 15 15 15 15 15 15 15 15 15 15 15 15 15 15 15 15 15 15 15 15 15 15 15 15 15 15 15 15 15 15 15
15 15 15 15 15 15 15 15 15 15 15 15 15 15 15 15 15 15 15 15 15 15 15 15 15 14 15 15 15 14 14 14 15 15 15 15 15 15 15 15 15 15 15
15 15 15 15 15 15 15 15 15 15 15 15 15 14 14 14 14 14 14 14 14 14 14 14 14 14 14 14 14 14 14 14 14 14 14 14 14 14 14 14 14 15 15
15 15 15 15 15 15 15 15 15 15 15 15 14 14 14 14 14 14 14 14 14 14 14 14 14 14 14 14 14 14 14 14 14 14 14 14 14 14 14 14 14 14 14
15 15 15 15 15 15 15 15 15 15 14 14 14 14 14 14 14 14 14 14 14 14 14 14 14 14 14 14 13 14 14 14 14 14 14 14 14 14 14 14 14 14 14
15 15 15 15 15 15 15 15 14 14 14 14 14 14 14 13 13 13 13 13 13 13 13 13 13 13 13 13 13 13 13 13 13 13 13 13 13 13 14 14 14 14 14
15 15 15 15 15 15 15 15 14 14 14 14 14 14 13 13 13 13 13 13 13 13 13 13 13 13 13 13 13 13 13 13 13 13 13 13 13 13 13 13 13 13 13
15 15 15 15 15 15 15 14 14 14 14 14 14 14 13 13 13 13 13 13 13 13 13 13 13 13 13 13 13 13 13 13 13 13 13 13 13 13 13 13 13 13 13
15 15 15 15 15 15 15 14 14 14 14 14 14 14 14 13 13 13 13 13 13 13 13 13 13 13 13 13 13 13 13 13 13 13 13 13 13 13 13 13 12 12 12
15 15 15 15 15 15 15 14 14 14 14 14 14 14 14 14 13 12 12 12 12 12 12 12 12 12 12 12 12 12 12 12 12 12 12 12 12 12 12 12 12 12 12
15 15 15 15 15 15 15 14 14 14 14 14 14 14 14 14 14 13 12 12 12 12 12 12 12 12 12 12 12 12 12 12 12 12 12 12 12 12 12 12 12 12 11
15 15 15 15 15 15 15 15 14 14 14 14 14 14 14 14 14 14 13 12 12 12 12 12 12 12 12 12 12 12 12 12 12 12 12 12 12 11 11 11 11 11 11
15 15 15 15 15 15 15 14 14 14 14 14 14 14 14 14 14 14 13 13 12 12 11 11 11 11 11 12 12 11 11 11 11 11 11 11 11 11 11 11 11 11 11
15 15 15 15 15 15 15 14 14 14 14 14 14 14 14 14 14 14 14 13 13 12 12 11 11 11 11 11 11 11 11 11 11 11 11 11 11 11 11 11 11 11 10
15 15 15 15 15 15 15 14 14 14 14 14 14 14 14 14 14 14 14 14 14 13 12 12 11 11 11 11 11 11 11 11 11 11 11 11 11 11 11 11 10 10 10
15 15 15 15 15 15 15 15 14 14 14 14 14 14 14 14 14 14 14 14 14 14 13 12 12 11 11 11 11 11 11 11 11 11 10 11 11 11 11 10 10 10 10
15 15 15 15 15 15 15 14 14 14 14 14 14 14 14 14 14 14 14 14 14 13 13 12 12 11 11 11 11 11 11 11 10 10 10 10 10 10 10 10 10 10 10
15 15 15 15 15 15 15 15 14 14 14 14 14 14 14 14 14 14 14 14 13 13 13 13 12 12 11 11 11 11 11 11 10 10 10 10 10 10 10 10 10 10 10
15 15 15 15 15 15 15 15 15 14 14 14 14 14 14 14 14 14 14 14 13 13 13 13 12 12 11 11 11 11 11 10 10 10 10 10 10 10 9 9 9 9 9
15 15 15 15 15 15 15 15 14 14 14 14 14 14 14 14 14 14 14 13 13 13 13 13 12 12 11 11 11 11 10 10 10 10 10 10 10 9 9 9 9 9 9
15 15 15 15 15 15 15 14 14 14 14 14 14 14 14 14 14 14 13 13 13 13 13 12 12 12 11 11 11 11 10 10 10 10 10 10 9 9 9 9 9 9 8
15 15 15 15 14 14 14 14 14 14 14 14 14 14 14 13 13 13 13 13 13 13 13 13 12 12 12 11 11 11 10 10 10 10 9 9 9 9 9 9 8 8 8
15 15 15 14 14 14 14 14 14 14 14 14 14 14 14 13 13 13 13 13 13 13 12 12 12 12 12 11 11 11 10 10 10 10 9 9 9 9 9 8 8 8 8
15 15 14 14 14 14 14 14 14 14 14 14 14 13 13 13 13 13 13 13 13 13 12 12 12 12 12 11 11 11 10 10 10 9 9 9 9 9 8 8 8 8 8
15 14 14 14 14 14 14 14 14 14 14 13 13 13 13 13 13 13 13 13 13 13 12 12 12 12 11 11 11 10 10 10 10 9 9 9 9 9 8 8 8 8 8
14 14 14 14 14 14 14 14 14 13 13 13 13 13 13 13 13 13 13 13 13 13 12 12 12 12 11 11 11 10 10 10 10 9 9 9 9 8 8 8 8 8 7
Wind_Speed
2 3 4 5 6 6 6 6 7 7 7 9 9 10 9 10 11 11 11 14 14 14 14 13 12 12 13 13 14 15 15 15 15 14 14 14 14 13 12 12 12 11 11
3 3 3 4 5 6 7 7 7 6 6 7 7 8 9 9 10 11 12 13 16 16 15 15 14 13 14 15 15 15 15 15 15 15 15 15 14 14 14 14 13 13 13
5 4 3 3 4 6 8 8 8 7 6 6 6 7 8 9 9 11 12 12 13 15 17 16 16 15 16 16 16 16 16 16 16 16 16 16 15 15 15 15 15 14 14
6 5 3 3 5 7 7 5 5 6 6 6 5 5 6 7 9 10 12 13 13 13 15 18 18 17 17 16 16 16 16 16 16 16 16 16 16 16 17 17 16 16 15
6 6 4 4 7 6 4 5 4 4 5 6 6 6 6 6 6 9 10 11 12 13 13 15 17 18 17 17 16 16 16 16 16 16 16 17 17 17 17 17 17 17 16
6 6 4 5 6 5 4 4 5 5 5 5 6 7 6 5 6 6 6 8 10 11 12 13 13 14 16 17 16 16 16 16 16 16 17 17 18 18 18 18 18 17 17
6 6 4 4 4 4 5 5 5 6 4 4 5 5 5 6 6 5 6 6 8 10 11 12 12 12 12 15 16 16 16 16 16 16 17 17 18 17 17 18 18 18 17
5 5 5 4 4 5 5 5 5 4 2 2 3 3 2 4 5 6 5 5 6 8 9 10 11 11 12 12 14 16 16 15 15 16 17 17 17 17 18 18 18 18 17
5 5 6 5 4 4 5 4 5 5 3 1 2 3 3 2 1 4 5 5 5 5 6 8 10 11 11 11 12 14 16 15 15 15 16 16 17 17 18 18 18 17 16
4 5 6 5 5 4 4 4 4 3 4 2 1 2 2 4 3 1 3 4 5 5 5 6 7 9 10 10 11 14 15 15 15 15 15 16 16 17 17 17 18 17 17
3 4 5 5 4 4 4 4 4 3 3 3 3 2 3 3 3 3 1 2 3 4 4 5 5 7 8 9 10 12 14 15 15 15 15 15 16 16 17 17 18 17 17
2 3 4 4 4 4 4 4 4 4 3 3 3 3 3 3 3 3 3 1 1 2 3 4 5 5 7 8 8 11 12 14 14 15 15 16 16 16 17 18 18 18 17
1 3 3 3 3 4 4 4 4 3 3 3 3 2 2 3 3 4 5 3 1 1 2 2 4 4 5 6 7 9 11 12 13 14 15 15 15 16 16 17 18 19 18
4 4 4 4 4 4 5 4 3 3 3 3 3 3 2 2 3 4 5 5 3 1 2 1 2 3 4 5 6 8 9 11 12 13 14 14 15 15 16 17 18 18 19
4 4 5 4 4 4 5 4 3 3 3 3 3 3 2 2 3 3 4 4 5 3 1 1 1 1 2 4 6 7 8 10 11 12 13 13 14 14 15 16 16 17 17
3 4 4 4 4 4 4 4 3 3 4 3 3 4 3 2 3 3 3 3 3 4 3 1 1 0 2 4 5 6 7 8 10 10 11 12 12 13 14 14 15 15 15
4 4 5 5 4 4 4 5 4 4 4 3 3 4 3 3 3 3 3 3 3 4 4 1 1 1 2 3 4 6 6 6 7 9 10 10 11 12 12 13 13 13 14
4 4 4 5 4 4 5 5 5 5 5 5 4 4 3 4 4 3 3 4 3 3 4 4 1 1 2 2 3 4 4 5 5 7 8 9 9 10 10 11 11 11 12
4 4 4 5 5 4 4 5 5 5 5 5 5 5 4 5 4 3 4 4 3 4 3 5 3 1 1 2 3 3 4 3 4 4 6 6 7 8 8 9 9 9 10
5 5 4 4 4 4 4 4 5 5 4 4 4 4 5 5 5 5 4 5 5 5 5 5 3 2 1 2 2 2 1 2 2 3 3 4 5 6 7 7 7 8 8
5 4 4 4 4 4 4 5 5 5 5 4 3 4 4 5 7 6 5 5 6 5 5 4 3 2 2 2 2 2 2 1 2 1 2 3 3 4 4 5 5 6 7
4 4 5 5 4 4 6 7 7 5 5 5 4 3 3 4 5 6 7 8 9 7 6 5 3 4 3 3 3 3 3 2 1 0 1 1 2 2 2 3 3 4 5
5 4 4 4 4 4 7 8 9 6 5 5 4 4 3 3 4 4 4 6 6 7 8 7 6 6 5 6 5 4 3 3 2 2 2 0 1 1 2 3 3 3 3
5 5 4 5 4 4 7 8 9 6 4 4 4 4 4 3 4 5 5 4 2 2 4 5 6 6 5 6 6 5 4 3 1 1 2 1 0 1 2 3 3 2 2
5 4 5 5 5 5 7 8 9 5 4 3 3 4 4 4 6 8 6 5 2 1 2 4 5 4 5 8 9 6 4 3 1 1 1 2 1 0 1 2 2 2 2
5 5 4 5 6 5 7 9 10 5 4 3 2 3 5 6 7 9 6 6 4 2 2 3 3 3 4 6 8 6 5 4 2 2 2 3 2 1 0 1 2 2 2
Wind_Direction
90 76 77 77 76 80 83 84 85 81 79 75 74 70 61 55 51 46 40 48 54 56 59 60 60 59 58 56 57 54 51 48 45 43 41 39 38 35 33 30 28 29 30
107 93 85 83 80 84 87 92 92 87 80 77 70 66 60 56 52 50 45 44 50 53 54 56 58 58 59 59 57 55 52 49 46 44 42 39 37 35 36 34 34 35 36
122 118 109 98 96 98 98 95 88 85 82 75 67 62 61 58 56 51 49 46 46 49 51 52 54 57 59 58 57 54 51 48 46 45 42 41 40 39 38 38 38 41 41
135 127 121 110 108 103 102 100 93 86 79 75 68 56 53 52 53 54 54 51 49 46 47 51 53 55 56 56 56 54 51 49 46 46 45 43 42 42 41 39 40 41 43
138 132 121 119 117 105 99 109 92 97 94 85 75 60 50 48 46 55 54 52 51 49 48 47 49 50 50 51 52 52 51 49 48 48 47 46 45 44 42 41 42 42 44
140 132 123 121 120 110 103 105 102 89 95 96 85 67 52 48 47 45 46 51 50 50 49 48 45 44 46 47 48 49 49 49 48 50 50 48 46 44 43 43 43 43 45
141 135 133 125 122 122 128 124 113 101 92 100 90 67 46 47 49 42 43 49 48 48 51 48 46 44 42 43 44 45 46 48 49 50 49 48 46 45 44 45 45 45 46
142 143 138 133 128 124 127 130 126 116 107 96 110 102 57 28 29 35 35 47 41 46 49 47 46 44 42 41 39 41 42 44 47 49 50 49 47 46 47 46 46 47 47
136 136 141 138 138 138 148 150 141 135 139 88 86 132 136 161 27 19 32 39 36 41 41 44 44 42 42 41 39 40 41 42 46 49 50 49 48 47 48 48 48 47 48
122 128 133 139 144 145 150 156 145 140 141 147 82 68 118 143 138 76 19 25 35 40 34 41 39 40 42 43 43 43 43 44 46 48 49 50 50 49 49 49 48 48 50
106 123 133 139 147 150 152 146 137 143 148 156 155 135 102 83 101 133 124 22 32 28 32 36 40 40 41 43 46 46 46 46 47 47 47 49 49 49 49 48 47 48 52
106 124 137 147 153 153 157 159 154 155 156 151 153 155 155 153 158 141 147 139 69 10 25 33 36 36 40 44 48 51 51 49 50 49 48 48 47 47 48 48 47 49 53
173 183 163 160 162 162 158 153 154 160 162 164 170 169 167 164 150 139 136 141 117 14 15 20 28 37 48 48 49 53 54 53 52 52 51 50 49 48 49 49 49 51 55
197 188 175 172 171 162 158 155 152 165 159 167 173 162 152 157 150 148 148 142 125 56 27 350 9 37 58 60 56 61 59 57 55 54 54 54 53 52 53 53 52 52 54
187 179 175 175 170 165 162 156 160 164 150 156 161 153 146 152 151 152 149 151 147 152 199 260 337 11 75 78 70 72 67 62 59 57 56 57 56 56 56 57 56 54 54
177 169 171 170 165 164 162 159 161 159 146 147 145 140 138 142 142 143 147 141 139 148 163 204 212 189 102 99 85 82 77 69 63 62 62 61 59 57 57 58 58 56 55
176 174 175 168 169 171 167 164 169 160 154 150 147 148 153 143 137 136 131 130 129 129 139 143 83 75 83 91 84 85 82 75 69 67 66 64 62 60 58 57 58 56 55
175 174 171 168 174 173 172 171 173 166 164 165 164 152 157 144 134 136 135 140 141 137 141 145 118 86 84 106 97 88 86 84 78 70 67 64 64 62 59 57 58 58 56
166 162 163 173 176 174 172 175 171 167 171 173 170 168 168 152 151 147 141 142 142 136 129 142 139 107 92 107 93 82 78 74 80 73 67 62 64 66 64 61 61 59 58
166 167 169 175 173 169 167 168 163 163 164 166 168 168 169 170 171 165 155 153 142 131 127 131 131 117 111 103 110 115 79 46 51 61 71 62 60 61 62 65 63 61 61
171 169 161 163 162 162 167 164 165 163 161 158 154 157 168 173 176 175 166 161 151 142 138 137 142 136 149 155 171 170 149 89 31 51 60 46 49 47 39 51 60 62 62
158 159 165 167 168 177 168 164 159 156 157 154 151 149 153 156 161 167 168 165 160 157 163 160 165 175 194 189 168 162 155 141 248 297 110 33 55 35 13 33 52 59 58
159 161 169 168 173 179 170 166 163 153 154 156 155 155 158 149 142 137 141 146 161 170 169 168 175 192 190 191 171 173 182 181 201 190 132 49 21 10 359 30 52 59 61
166 170 172 172 169 177 170 165 159 148 146 151 157 163 164 158 156 146 135 128 137 165 182 178 189 197 193 180 175 174 167 146 104 72 141 166 260 295 5 18 37 57 65
171 172 170 168 170 178 167 160 151 145 146 155 158 160 163 169 168 153 142 142 142 184 165 178 186 182 173 169 158 134 135 137 184 239 183 165 183 215 339 347 3 34 58
173 166 163 172 176 180 173 163 152 149 153 158 155 168 175 172 168 160 156 156 167 200 142 116 109 108 122 144 156 161 165 163 173 219 200 166 169 154 286 318 359 17 41
Height
1541 1541 1542 1542 1543 1544 1544 1545 1546 1546 1546 1547 1547 1547 1547 1547 1547 1546 1546 1545 1545 1545 1544 1543 1543 1542 1541 1540 1539 1538 1537 1536 1534 1533 1532 1530 1529 1528 1526 1525 1523 1521 1519
1542 1542 1543 1544 1545 1545 1546 1546 1547 1547 1548 1548 1548 1549 1549 1548 1548 1548 1547 1547 1546 1546 1545 1545 1544 1543 1543 1541 1540 1539 1538 1537 1536 1534 1533 1531 1530 1528 1527 1525 1523 1522 1520
1543 1543 1544 1545 1546 1546 1547 1548 1548 1549 1549 1550 1550 1550 1550 1550 1550 1549 1549 1548 1548 1548 1547 1546 1545 1545 1544 1543 1542 1541 1539 1538 1537 1535 1534 1532 1531 1529 1527 1526 1524 1522 1521
1544 1544 1545 1546 1547 1547 1548 1549 1549 1550 1551 1551 1551 1552 1552 1552 1552 1551 1551 1550 1550 1549 1549 1548 1547 1546 1545 1544 1543 1542 1541 1540 1538 1537 1535 1533 1532 1530 1528 1526 1525 1523 1522
1544 1545 1546 1547 1548 1548 1549 1550 1551 1551 1552 1552 1553 1553 1553 1554 1554 1553 1553 1552 1552 1551 1551 1550 1549 1548 1547 1546 1545 1544 1543 1541 1539 1538 1536 1535 1533 1531 1529 1527 1526 1524 1522
1545 1545 1546 1547 1548 1549 1550 1551 1552 1552 1553 1553 1554 1554 1555 1555 1555 1555 1555 1555 1554 1553 1553 1552 1551 1550 1549 1548 1547 1546 1544 1543 1541 1540 1538 1536 1534 1532 1530 1528 1526 1525 1523
1545 1546 1546 1548 1549 1550 1551 1551 1552 1553 1554 1555 1555 1556 1557 1557 1557 1557 1557 1556 1556 1555 1554 1554 1553 1552 1551 1550 1549 1547 1546 1544 1543 1542 1540 1538 1536 1534 1531 1529 1527 1525 1524
1545 1546 1547 1548 1549 1550 1551 1552 1553 1554 1555 1556 1556 1556 1558 1560 1559 1559 1558 1558 1558 1557 1556 1556 1555 1554 1553 1552 1551 1549 1548 1546 1545 1544 1542 1540 1538 1535 1533 1530 1528 1526 1525
1545 1546 1547 1548 1549 1550 1551 1552 1554 1554 1555 1556 1557 1558 1558 1558 1559 1560 1560 1559 1559 1558 1558 1557 1557 1556 1555 1554 1553 1551 1550 1548 1547 1546 1544 1542 1540 1537 1535 1532 1530 1527 1525
1545 1546 1547 1548 1549 1551 1552 1553 1554 1555 1555 1556 1557 1557 1558 1558 1559 1560 1561 1560 1560 1560 1559 1559 1558 1557 1556 1555 1554 1553 1552 1550 1549 1547 1546 1544 1542 1540 1537 1534 1531 1527 1525
1545 1546 1547 1548 1549 1551 1552 1553 1553 1555 1556 1556 1557 1557 1558 1558 1559 1559 1560 1561 1561 1561 1560 1560 1559 1559 1558 1557 1556 1555 1554 1552 1551 1549 1548 1546 1544 1542 1539 1536 1532 1528 1525
1544 1545 1546 1548 1549 1550 1551 1552 1553 1554 1555 1556 1557 1557 1557 1558 1558 1558 1559 1560 1561 1561 1561 1561 1561 1560 1559 1559 1558 1557 1556 1554 1552 1551 1549 1548 1546 1544 1541 1538 1534 1529 1527
1543 1545 1546 1547 1548 1549 1551 1552 1553 1554 1554 1555 1556 1557 1557 1557 1558 1558 1559 1559 1560 1561 1562 1562 1562 1561 1561 1560 1559 1558 1557 1556 1554 1553 1551 1549 1548 1546 1543 1540 1537 1533 1530
1542 1544 1545 1546 1548 1549 1550 1551 1552 1553 1554 1554 1555 1556 1556 1557 1557 1558 1558 1559 1560 1561 1562 1562 1562 1562 1562 1561 1560 1560 1559 1558 1556 1555 1553 1551 1550 1548 1545 1543 1540 1538 1535
1541 1542 1544 1545 1547 1548 1549 1550 1551 1552 1553 1553 1554 1555 1555 1556 1557 1557 1558 1559 1560 1560 1561 1562 1562 1563 1562 1562 1562 1561 1560 1559 1558 1556 1555 1553 1552 1550 1548 1546 1544 1542 1540
1539 1541 1542 1544 1545 1547 1548 1549 1550 1551 1552 1553 1553 1554 1555 1555 1556 1557 1557 1558 1559 1560 1560 1561 1562 1563 1563 1563 1563 1562 1561 1560 1559 1558 1557 1555 1554 1552 1550 1548 1547 1545 1543
1538 1539 1541 1542 1544 1545 1546 1548 1549 1550 1551 1552 1552 1553 1554 1555 1555 1556 1557 1558 1558 1559 1559 1560 1561 1562 1563 1563 1563 1563 1562 1561 1560 1559 1558 1557 1556 1554 1552 1551 1549 1547 1546
1536 1538 1540 1541 1542 1544 1545 1546 1547 1549 1550 1550 1551 1552 1553 1554 1555 1555 1556 1557 1558 1558 1559 1559 1560 1561 1562 1563 1563 1563 1562 1562 1561 1560 1559 1558 1557 1555 1554 1552 1551 1549 1548
1535 1536 1538 1539 1541 1542 1544 1545 1546 1548 1548 1549 1550 1551 1552 1553 1554 1555 1555 1556 1557 1558 1558 1559 1560 1561 1561 1562 1562 1562 1562 1562 1561 1561 1560 1559 1558 1557 1555 1554 1552 1551 1549
1533 1534 1536 1537 1539 1540 1542 1543 1545 1546 1547 1548 1549 1550 1551 1552 1553 1554 1554 1555 1556 1557 1557 1558 1559 1560 1561 1561 1562 1562 1562 1562 1561 1561 1560 1559 1558 1557 1556 1555 1553 1552 1550
1531 1532 1534 1535 1537 1538 1540 1541 1543 1544 1546 1547 1548 1549 1550 1551 1552 1553 1554 1554 1555 1556 1556 1557 1558 1559 1559 1560 1560 1561 1561 1561 1561 1560 1560 1559 1558 1557 1556 1555 1554 1552 1551
1528 1530 1532 1533 1535 1536 1538 1539 1541 1542 1544 1545 1546 1547 1548 1549 1550 1551 1552 1553 1554 1555 1555 1556 1557 1557 1558 1558 1559 1559 1560 1560 1559 1560 1559 1558 1558 1557 1556 1555 1554 1553 1551
1526 1528 1530 1531 1533 1534 1536 1537 1539 1540 1542 1543 1545 1546 1547 1548 1549 1550 1551 1551 1552 1553 1554 1555 1556 1556 1557 1557 1558 1558 1558 1558 1558 1558 1558 1557 1557 1556 1555 1554 1553 1552 1551
1524 1526 1527 1529 1531 1532 1534 1535 1537 1538 1540 1541 1543 1544 1546 1546 1547 1548 1549 1550 1551 1551 1552 1553 1554 1555 1555 1556 1556 1557 1557 1556 1556 1556 1556 1556 1555 1555 1554 1553 1552 1551 1550
1521 1523 1525 1527 1528 1530 1532 1533 1535 1536 1538 1539 1541 1542 1544 1544 1545 1546 1547 1548 1549 1550 1551 1551 1552 1553 1553 1554 1554 1554 1554 1554 1554 1554 1554 1554 1553 1553 1552 1552 1551 1550 1549
1519 1521 1523 1525 1526 1528 1530 1531 1533 1534 1536 1537 1539 1540 1541 1542 1543 1544 1545 1546 1547 1547 1548 1549 1550 1550 1551 1551 1552 1552 1552 1552 1552 1552 1552 1552 1551 1551 1550 1550 1549 1549 1548